This demonstration page uses our WeatherBlox Daily Observations layout. Learn more.

Left ArrowRight Arrow

Hourly Observations for June 26, 2015

Temp ( °F °C ) Dew Point ( °F °C ) Humidity (%) Winds ( mph kmh ) Pressure ( in mb ) Visibility ( mi km ) Precip ( " mm )
12:06 am 00:06 Mostly Cloudy with Thunderstorms 70 21.1 65 18.3 84 84 WNW 38 61 30.00 1016 3 4 0.03 0.76
12:09 am 00:09 Mostly Cloudy with Thunderstorms 68 20 66 18.9 93 93 W 28 44 29.98 1015 1 2 0.14 3.56
12:13 am 00:13 Mostly Cloudy with Strong Thunderstorms 72 22.2 69 20.6 91 91 WNW 38 61 29.97 1015 1 2 0.37 9.40
12:20 am 00:20 Cloudy with Thunderstorms 67 19.4 66 18.9 97 97 W 15 24 29.94 1014 2 3 0.59 14.99
12:32 am 00:32 Cloudy with Thunderstorms 68 20 68 20 100 100 SW 14 22 29.94 1014 2 3 0.68 17.27
12:59 am 00:59 Cloudy with Thunderstorms 71 21.7 68 20 90 90 W 18 30 29.94 1014 5 8 0.92 23.37
1:59 am 01:59 Cloudy with Thunderstorms 69 20.6 68 20 96 96 S 5 7 29.90 1013 10 16 0.08 2.03
2:25 am 02:25 Cloudy 70 21.1 68 20 93 93 SSW 9 15 29.91 1013 10 16 0.00 0.00
2:59 am 02:59 Cloudy with Light Rain 71 21.7 67 19.4 87 87 WSW 12 19 29.93 1014 10 16 0.00 0.03
3:59 am 03:59 Cloudy with Light Rain 56 13.3 51 10.6 84 84 SW 8 13 29.84 1011 4 6 0.10 2.54
4:59 am 04:59 Mostly Cloudy 70 21.1 68 20 93 93 WNW 3 6 29.92 1013 10 16 0.00 0.03
5:37 am 05:37 Cloudy 71 21.7 69 20.6 94 94 SW 6 9 29.94 1014 10 16 0.00 0.00
5:59 am 05:59 Cloudy with Light Rain 71 21.7 69 20.6 94 94 S 3 6 29.94 1014 5 8 0.05 1.27
6:16 am 06:16 Mostly Cloudy with Light Rain 71 21.7 70 21.1 96 96 S 3 6 29.94 1014 6 10 0.00 0.00
6:59 am 06:59 Mostly Cloudy 72 22.2 70 21.1 94 94 N 3 6 29.91 1013 10 16 0.05 1.27
7:33 am 07:33 Mostly Cloudy 72 22.2 70 21.1 94 94 SSW 5 7 29.94 1014 8 13 0.00 0.00
7:41 am 07:41 Mostly Cloudy 72 22.2 70 21.1 94 94 SW 5 7 29.94 1014 7 11 0.00 0.00
7:59 am 07:59 Mostly Cloudy 72 22.2 70 21.1 94 94 SW 7 11 29.93 1014 8 13 0.00 0.00
8:59 am 08:59 Mostly Cloudy 75 23.9 72 22.2 90 90 WSW 6 9 29.95 1014 8 13 0.00 0.00
9:42 am 09:42 Mostly Cloudy 76 24.4 71 21.7 85 85 W 9 15 29.97 1015 9 14 0.00 0.00
9:59 am 09:59 Cloudy 75 23.9 70 21.1 84 84 W 7 11 29.98 1015 9 14 0.00 0.00
10:59 am 10:59 Cloudy 79 26.1 72 22.2 79 79 NW 9 15 29.98 1015 8 13 0.00 0.00
11:59 am 11:59 Cloudy 78 25.6 71 21.7 79 79 N 8 13 30.00 1016 8 13 0.00 0.00
12:36 pm 12:36 Cloudy with Heavy Rain 75 23.9 72 22.2 90 90 NNE 14 22 30.00 1016 2 3 0.00 0.00
12:44 pm 12:44 Cloudy with Light Rain 75 23.9 72 22.2 90 90 NE 15 24 29.97 1015 3 5 0.00 0.00
12:59 pm 12:59 Cloudy with Light Rain 75 23.9 72 22.2 90 90 NE 10 17 29.97 1015 4 6 0.09 2.29
1:59 pm 13:59 Mostly Cloudy 77 25 69 20.6 77 77 ENE 8 13 29.96 1014 8 13 0.01 0.25
2:59 pm 14:59 Mostly Cloudy 78 25.6 70 21.1 76 76 VRB 7 11 29.98 1015 9 14 0.00 0.00
3:59 pm 15:59 Mostly Cloudy 79 26.1 69 20.6 72 72 N 10 17 29.98 1015 9 14 0.00 0.00
4:59 pm 16:59 Mostly Cloudy 78 25.6 69 20.6 74 74 NNE 12 19 29.98 1015 9 14 0.00 0.00
5:59 pm 17:59 Mostly Cloudy 76 24.4 70 21.1 82 82 E 14 22 29.97 1015 9 14 0.00 0.00
6:59 pm 18:59 Mostly Cloudy 75 23.9 69 20.6 82 82 E 10 17 30.00 1016 8 13 0.00 0.00
7:59 pm 19:59 Mostly Cloudy 74 23.3 69 20.6 85 85 E 14 22 30.01 1016 9 14 0.00 0.00
8:59 pm 20:59 Partly Cloudy 73 22.8 69 20.6 87 87 ESE 7 11 30.01 1016 10 16 0.00 0.00
9:59 pm 21:59 Partly Cloudy 73 22.8 68 20 84 84 ESE 6 9 30.03 1017 10 16 0.00 0.00
10:59 pm 22:59 Partly Cloudy 72 22.2 68 20 87 87 ESE 3 6 30.03 1017 10 16 0.00 0.00
11:59 pm 23:59 Partly Cloudy 72 22.2 68 20 87 87 ESE 6 9 30.00 1016 10 16 0.00 0.00

Powered by AerisWeather